Location: Newark
(34.6283°N, 36.0776°E)
Time: 18:44:03
(UTC+00:00)

A-11 Canister half - Pass Details

Date: 21 September 2019
Orbit: 1527 x 1682 km, 47.3° (Epoch: 22 October)

Event Time Altitude Azimuth Distance (km) Brightness Sun altitude
Rises 06:10:35 0° 302° (WNW) 4,771 11.1 32.8°
Reaches altitude 10° 06:13:46 10° 307° (NW) 3,807 10.7 33.4°
Maximum altitude 06:23:15 54° 23° (NNE) 1,928 10.0 35.1°
Drops below altitude 10° 06:33:00 10° 99° (E) 3,913 12.3 36.9°
Sets 06:36:19 0° 104° (ESE) 4,912 12.5 37.4°
